Location: Roland
(31.1349°N, 85.4372°W)
Time: 00:51:14
(UTC+00:00)

S-56A Canister/Altair - Pass Details

Date: 21 April 2021
Orbit: 632 x 2500 km, 38.9° (Epoch: 06 May)

Event Time Altitude Azimuth Distance (km) Brightness Sun altitude
Exits shadow 09:34:30 23° 298° (WNW) 1,384 8.5 -19.3°
Maximum altitude 09:37:18 85° 23° (NNE) 639 7.1 -18.7°
Drops below altitude 10° 09:41:46 10° 114° (ESE) 2,032 10.2 -17.9°
Sets 09:44:09 0° 115° (ESE) 3,017 11.2 -17.4°
